EW7174 Weather Reports


Display with metric or nautical units.
time (UTC)temp
F
wind
direction
speed
MPH
gust
MPH
rain 1hr
in
rain 24hr
in
rain mn
in
humidity
%
barometer
mb
20180623054504 65 157 0.0 1.0 0.00 0.01 0.00 97 1009.6
20180623054004 65 225 0.0 1.0 0.00 0.01 0.00 98 1009.7
20180623053504 65 225 0.0 1.0 0.00 0.01 0.00 98 1009.8
20180623053005 65 157 1.0 2.0 0.00 0.01 0.00 98 1009.6
20180623052504 65 157 1.0 2.0 0.00 0.01 0.00 98 1009.7
20180623052004 65 180 0.0 1.0 0.00 0.01 0.00 97 1009.6
20180623051504 66 157 1.0 2.0 0.00 0.01 0.00 98 1009.7
20180623051003 66 157 0.0 2.0 0.00 0.01 0.00 98 1009.7
20180623050504 66 161 2.0 3.0 0.00 0.01 0.00 97 1009.8
20180623050009 66 157 2.0 3.0 0.00 0.01 0.00 96 1009.8
20180623045504 65 148 3.0 4.0 0.00 0.01 0.00 97 1009.8
20180623045004 65 152 2.0 3.0 0.00 0.01 0.00 96 1009.7
20180623044504 65 157 3.0 4.0 0.00 0.01 0.00 96 1009.6
20180623044004 65 157 1.0 1.0 0.00 0.01 0.00 96 1009.5
20180623043504 65 162 2.0 3.0 0.00 0.01 0.00 97 1009.6
20180623043004 65 157 1.0 2.0 0.00 0.01 0.00 97 1009.5
20180623042504 65 157 0.0 1.0 0.00 0.01 0.00 96 1009.5
20180623042004 65 157 1.0 2.0 0.00 0.01 0.00 97 1009.5
20180623041504 66 148 1.0 1.0 0.00 0.01 0.00 97 1009.5
20180623041004 66 157 1.0 1.0 0.00 0.01 0.00 96 1009.6
20180623040504 66 157 1.0 2.0 0.00 0.01 0.00 97 1009.6
20180623035504 66 150 2.0 2.0 0.00 0.01 0.01 97 1009.5
20180623035004 66 135 2.0 2.0 0.00 0.01 0.01 96 1009.7
20180623034504 65 157 1.0 1.0 0.00 0.01 0.01 96 1009.6
20180623034004 66 157 2.0 3.0 0.00 0.01 0.01 96 1009.6
20180623033504 66 157 2.0 2.0 0.00 0.01 0.01 95 1009.7
20180623033005 66 157 0.0 1.0 0.00 0.01 0.01 95 1009.6
20180623032504 66 157 2.0 3.0 0.00 0.01 0.01 95 1009.6
20180623032004 66 157 2.0 2.0 0.00 0.01 0.01 95 1009.5
20180623031504 66 202 1.0 1.0 0.00 0.01 0.01 95 1009.5
20180623031005 66 167 2.0 2.0 0.00 0.01 0.01 96 1009.5
20180623030504 66 157 1.0 2.0 0.00 0.01 0.01 95 1009.5
20180623030006 66 157 1.0 1.0 0.00 0.01 0.01 95 1009.5
20180623025504 66 172 1.0 2.0 0.00 0.01 0.01 95 1009.6
20180623025004 66 168 2.0 3.0 0.00 0.01 0.01 94 1009.5
20180623024504 66 157 1.0 1.0 0.00 0.01 0.01 94 1009.6
20180623024004 66 157 0.0 0.0 0.00 0.01 0.01 94 1009.5
20180623023504 66 153 1.0 2.0 0.00 0.01 0.01 95 1009.4
20180623023004 66 180 0.0 1.0 0.00 0.01 0.01 94 1009.3
20180623022504 66 202 1.0 1.0 0.00 0.01 0.01 93 1009.2
20180623022004 66 157 1.0 2.0 0.00 0.01 0.01 92 1009.2
20180623021504 66 157 1.0 1.0 0.00 0.01 0.01 93 1009.1
20180623021004 66 157 1.0 1.0 0.00 0.01 0.01 91 1009.1
20180623020504 66 157 1.0 1.0 0.00 0.01 0.01 91 1009.1
20180623020005 66 157 0.0 0.0 0.00 0.01 0.01 91 1009.0
20180623015504 67 157 2.0 2.0 0.00 0.01 0.01 92 1009.1
20180623015004 67 157 1.0 2.0 0.00 0.01 0.01 91 1008.9
20180623014504 67 157 2.0 2.0 0.00 0.01 0.01 90 1008.9
20180623014005 67 157 1.0 2.0 0.00 0.01 0.01 89 1008.9
20180623013504 67 157 1.0 1.0 0.00 0.01 0.01 88 1009.0
20180623013005 68 202 0.0 0.0 0.00 0.01 0.01 88 1008.9
20180623012504 68 210 0.0 1.0 0.00 0.01 0.01 87 1008.9
20180623012005 68 225 0.0 0.0 0.00 0.01 0.01 87 1008.9
20180623011504 69 247 1.0 2.0 0.00 0.01 0.01 88 1008.8
20180623011004 69 159 0.0 0.0 0.00 0.01 0.01 87 1008.8
20180623010503 69 157 0.0 1.0 0.00 0.01 0.01 87 1008.8
20180623010005 70 202 1.0 3.0 0.00 0.01 0.01 87 1008.6
20180623005504 70 225 1.0 2.0 0.00 0.01 0.01 87 1008.6
20180623005004 70 67 0.0 2.0 0.00 0.01 0.01 86 1008.5
20180623004504 70 208 0.0 2.0 0.00 0.01 0.01 86 1008.5
20180623004004 70 181 1.0 4.0 0.00 0.01 0.01 86 1008.3
20180623003504 70 71 2.0 4.0 0.00 0.01 0.01 87 1008.2
20180623003005 70 151 2.0 3.0 0.00 0.01 0.01 87 1008.2
20180623002504 71 168 3.0 4.0 0.00 0.01 0.01 87 1008.1
20180623002004 71 157 3.0 4.0 0.00 0.01 0.01 86 1008.1
20180623001504 71 150 3.0 4.0 0.00 0.01 0.01 85 1008.0
20180623001004 71 158 2.0 4.0 0.00 0.01 0.01 85 1008.1
20180623000504 71 157 1.0 2.0 0.00 0.01 0.01 84 1007.9
20180623000005 72 135 0.0 1.0 0.00 0.01 0.01 83 1007.8
20180622235504 72 157 1.0 2.0 0.00 0.01 0.01 83 1007.9
20180622235004 73 157 3.0 4.0 0.00 0.01 0.01 82 1007.9
20180622234504 73 165 2.0 3.0 0.00 0.01 0.01 81 1008.0
20180622234004 73 137 2.0 3.0 0.00 0.01 0.01 82 1007.9
20180622233503 73 146 2.0 3.0 0.00 0.01 0.01 82 1007.9
20180622233004 73 168 2.0 3.0 0.00 0.01 0.01 83 1007.8
20180622232504 73 146 2.0 3.0 0.00 0.01 0.01 84 1007.9
20180622232005 72 180 1.0 2.0 0.00 0.01 0.01 84 1007.9
20180622231504 72 157 4.0 4.0 0.00 0.01 0.01 85 1007.9
20180622231004 72 202 3.0 4.0 0.00 0.01 0.01 85 1007.8
20180622230504 72 146 3.0 4.0 0.00 0.01 0.01 85 1007.8
20180622230006 72 157 1.0 2.0 0.00 0.01 0.01 85 1007.8
20180622225504 72 157 1.0 2.0 0.00 0.01 0.01 85 1007.8
20180622225004 72 163 1.0 2.0 0.00 0.01 0.01 87 1007.9
20180622224504 72 165 3.0 4.0 0.00 0.01 0.01 87 1007.9
20180622224004 71 135 2.0 2.0 0.00 0.01 0.01 87 1007.9
20180622223504 71 157 1.0 1.0 0.00 0.01 0.01 88 1007.8
20180622223004 71 202 2.0 3.0 0.00 0.01 0.01 88 1007.9
20180622222504 71 202 2.0 3.0 0.00 0.01 0.01 88 1007.8
20180622222005 71 217 1.0 2.0 0.00 0.01 0.01 88 1008.0
20180622221504 71 146 1.0 1.0 0.00 0.01 0.01 87 1007.8
20180622221004 72 157 1.0 1.0 0.00 0.01 0.01 87 1007.8
20180622220504 72 202 2.0 3.0 0.00 0.01 0.01 87 1007.8
20180622220004 72 136 1.0 2.0 0.00 0.01 0.01 87 1007.8
20180622215504 73 216 2.0 3.0 0.00 0.01 0.01 84 1007.9
20180622215005 73 191 4.0 5.0 0.00 0.01 0.01 82 1008.0
20180622214504 74 202 1.0 2.0 0.00 0.01 0.01 80 1008.0
20180622214005 75 219 1.0 2.0 0.00 0.01 0.01 80 1008.0
20180622213504 76 202 1.0 2.0 0.00 0.01 0.01 80 1008.1
20180622213006 76 168 3.0 4.0 0.00 0.01 0.01 80 1008.1
20180622212503 75 180 4.0 5.0 0.00 0.01 0.01 82 1008.1
20180622212004 75 135 2.0 2.0 0.00 0.01 0.01 82 1008.2
20180622211504 75 157 1.0 2.0 0.00 0.01 0.01 83 1008.2
20180622211005 74 180 2.0 3.0 0.00 0.01 0.01 83 1008.1
20180622210504 75 172 4.0 5.0 0.00 0.01 0.01 84 1008.1
20180622210005 75 157 3.0 3.0 0.00 0.01 0.01 84 1008.0
20180622205504 75 174 3.0 4.0 0.00 0.01 0.01 86 1007.9
20180622205005 74 197 1.0 1.0 0.00 0.01 0.01 88 1008.0
20180622204504 74 179 1.0 2.0 0.00 0.01 0.01 90 1007.9
20180622204004 73 224 3.0 4.0 0.00 0.01 0.01 91 1007.9
20180622203503 72 247 2.0 3.0 0.00 0.01 0.01 91 1007.9
20180622203005 71 337 0.0 0.0 0.00 0.01 0.01 91 1007.9
20180622202504 71 162 1.0 2.0 0.00 0.01 0.01 91 1007.8
20180622202005 70 270 1.0 2.0 0.00 0.01 0.01 89 1007.8
20180622201503 70 134 2.0 2.0 0.00 0.01 0.01 87 1007.8
20180622201005 71 187 4.0 5.0 0.00 0.01 0.01 85 1008.0
20180622200504 73 236 3.0 4.0 0.00 0.01 0.01 84 1008.0
20180622200005 75 112 3.0 3.0 0.00 0.01 0.01 84 1007.4
20180622195503 75 157 2.0 3.0 0.00 0.01 0.01 85 1007.3
20180622195005 74 157 2.0 4.0 0.00 0.01 0.01 85 1007.3
20180622194504 74 157 2.0 3.0 0.00 0.01 0.01 87 1007.3
20180622194004 74 155 3.0 5.0 0.00 0.01 0.01 86 1007.5
20180622193504 74 146 2.0 4.0 0.01 0.01 0.01 86 1007.6
20180622193005 74 142 1.0 2.0 0.01 0.01 0.01 87 1007.7
20180622192504 74 354 2.0 5.0 0.01 0.01 0.01 86 1008.0
20180622192005 74 120 4.0 6.0 0.01 0.01 0.01 88 1007.7
20180622191504 73 150 2.0 3.0 0.01 0.02 0.01 88 1007.9
20180622191005 73 157 1.0 1.0 0.01 0.02 0.01 88 1007.8
20180622190504 73 163 2.0 3.0 0.01 0.02 0.01 89 1007.9
20180622190005 73 127 3.0 4.0 0.01 0.02 0.01 90 1008.0
20180622185504 72 164 3.0 5.0 0.01 0.02 0.01 90 1008.1
20180622185005 72 144 3.0 4.0 0.01 0.02 0.01 89 1008.2
20180622184005 72 112 6.0 7.0 0.01 0.02 0.01 87 1008.4
20180622183504 72 112 5.0 6.0 0.00 0.01 0.00 87 1008.3
20180622183004 73 157 7.0 8.0 0.00 0.01 0.00 85 1008.2
20180622182504 75 112 6.0 6.0 0.00 0.01 0.00 82 1008.3
20180622182005 76 119 5.0 8.0 0.00 0.01 0.00 84 1008.4
20180622181504 75 144 4.0 6.0 0.00 0.01 0.00 84 1008.5
20180622181005 75 103 4.0 6.0 0.00 0.01 0.00 86 1008.6
20180622180503 74 161 4.0 6.0 0.00 0.01 0.00 87 1008.6
20180622180005 74 132 4.0 6.0 0.00 0.01 0.00 86 1008.7
20180622175504 74 105 4.0 5.0 0.00 0.01 0.00 86 1008.9
20180622175006 75 118 6.0 8.0 0.00 0.01 0.00 85 1009.0
20180622174504 75 80 7.0 9.0 0.00 0.01 0.00 86 1009.1
20180622174004 74 112 6.0 7.0 0.00 0.01 0.00 87 1009.1
20180622173504 74 101 6.0 8.0 0.00 0.01 0.00 89 1009.2
20180622173005 73 101 5.0 6.0 0.00 0.01 0.00 90 1009.2
20180622172504 73 111 4.0 4.0 0.00 0.01 0.00 91 1009.5
20180622172006 72 109 4.0 5.0 0.00 0.01 0.00 93 1009.6
20180622171504 72 123 4.0 5.0 0.00 0.01 0.00 94 1009.7
20180622171010 71 105 5.0 7.0 0.00 0.01 0.00 94 1009.8
20180622170505 71 101 4.0 6.0 0.00 0.01 0.00 95 1009.9
20180622170006 70 95 5.0 8.0 0.00 0.01 0.00 95 1010.1
20180622165503 70 108 4.0 5.0 0.00 0.01 0.00 95 1010.2
20180622165005 70 99 4.0 5.0 0.00 0.01 0.00 94 1010.2
20180622164504 69 67 2.0 2.0 0.00 0.01 0.00 94 1010.3
20180622164006 69 112 2.0 3.0 0.00 0.01 0.00 93 1010.3
20180622163504 69 76 2.0 3.0 0.00 0.01 0.00 94 1010.4
20180622163004 69 135 2.0 3.0 0.00 0.01 0.00 93 1010.6
20180622162504 69 144 2.0 3.0 0.00 0.01 0.00 94 1010.5
20180622162006 69 157 3.0 3.0 0.00 0.01 0.00 93 1010.5
20180622161505 68 157 0.0 1.0 0.00 0.01 0.00 93 1010.6
20180622161005 68 157 1.0 2.0 0.00 0.01 0.00 92 1010.6
20180622160503 68 117 3.0 4.0 0.00 0.01 0.00 92 1010.9
20180622160005 68 146 3.0 4.0 0.00 0.01 0.00 90 1010.9
20180622155504 69 152 4.0 6.0 0.00 0.01 0.00 89 1010.9
20180622155005 70 153 4.0 4.0 0.00 0.01 0.00 89 1011.0
20180622154505 72 247 4.0 4.0 0.00 0.01 0.00 85 1011.1
20180622154006 72 157 0.0 0.0 0.00 0.01 0.00 85 1010.8
20180622153504 72 157 2.0 3.0 0.00 0.01 0.00 84 1010.8
20180622153005 73 179 1.0 1.0 0.00 0.01 0.00 82 1010.6
20180622152504 73 182 2.0 4.0 0.00 0.01 0.00 82 1010.5
20180622152005 74 164 1.0 2.0 0.00 0.01 0.00 82 1010.5
20180622151504 74 202 1.0 2.0 0.00 0.01 0.00 81 1010.4
20180622151005 74 194 1.0 3.0 0.00 0.01 0.00 80 1010.2
20180622150504 74 157 0.0 1.0 0.00 0.01 0.00 79 1010.2
20180622150005 74 157 2.0 3.0 0.00 0.01 0.00 78 1010.0
20180622145504 74 157 3.0 3.0 0.00 0.01 0.00 77 1009.9
20180622145006 75 184 2.0 3.0 0.00 0.01 0.00 76 1010.0
20180622144504 75 157 3.0 4.0 0.00 0.01 0.00 77 1010.1
20180622144004 75 135 1.0 2.0 0.00 0.01 0.00 76 1010.1
20180622143005 75 155 1.0 3.0 0.00 0.01 0.00 75 1010.2
20180622142005 75 154 2.0 3.0 0.00 0.01 0.00 77 1010.3
20180622141504 75 177 2.0 4.0 0.00 0.01 0.00 78 1010.3
20180622141005 74 166 1.0 3.0 0.00 0.01 0.00 78 1010.2
20180622140504 74 161 2.0 4.0 0.00 0.01 0.00 78 1010.2
20180622140006 74 161 4.0 6.0 0.00 0.01 0.00 79 1010.2
20180622135504 74 171 3.0 4.0 0.00 0.01 0.00 79 1010.2
20180622135006 74 159 3.0 6.0 0.00 0.01 0.00 80 1010.3
20180622134504 74 163 3.0 4.0 0.00 0.01 0.00 80 1010.2
20180622134004 74 155 3.0 6.0 0.00 0.01 0.00 79 1010.3
20180622133503 74 152 3.0 6.0 0.00 0.01 0.00 81 1010.3
20180622133006 73 168 3.0 5.0 0.00 0.01 0.00 82 1010.1
20180622132504 73 170 2.0 3.0 0.00 0.01 0.00 83 1010.0
20180622132005 72 157 4.0 6.0 0.00 0.01 0.00 85 1010.1
20180622131504 72 160 3.0 6.0 0.00 0.01 0.00 87 1010.2
20180622131004 71 160 4.0 6.0 0.00 0.01 0.00 88 1010.3
20180622130504 71 137 3.0 5.0 0.00 0.01 0.00 89 1010.3
20180622130005 71 144 3.0 5.0 0.00 0.01 0.00 90 1010.3
20180622125504 70 158 3.0 4.0 0.00 0.01 0.00 90 1010.2
20180622125005 70 161 3.0 5.0 0.00 0.01 0.00 91 1010.2
20180622124504 71 116 3.0 5.0 0.00 0.01 0.00 91 1010.2
20180622124005 71 110 2.0 4.0 0.00 0.01 0.00 93 1010.2
20180622123504 71 174 2.0 3.0 0.00 0.01 0.00 94 1010.3
20180622123005 70 152 2.0 4.0 0.00 0.01 0.00 95 1010.4
20180622122504 69 173 2.0 4.0 0.00 0.01 0.00 97 1010.4
20180622122005 69 157 3.0 5.0 0.00 0.01 0.00 97 1010.3
20180622121504 68 206 3.0 5.0 0.00 0.01 0.00 98 1010.3
20180622121005 68 155 2.0 4.0 0.00 0.01 0.00 98 1010.3
20180622120504 68 157 3.0 5.0 0.00 0.01 0.00 98 1010.3
20180622120005 67 153 3.0 5.0 0.00 0.01 0.00 98 1010.2
20180622115504 67 157 3.0 4.0 0.00 0.01 0.00 99 1010.0
20180622115005 67 138 3.0 4.0 0.00 0.01 0.00 99 1010.0
20180622114503 67 150 3.0 4.0 0.00 0.01 0.00 99 1010.0
20180622114004 67 154 2.0 4.0 0.00 0.01 0.00 99 1010.0
20180622113505 66 157 2.0 3.0 0.00 0.01 0.00 98 1010.0
20180622113004 66 152 2.0 3.0 0.00 0.01 0.00 99 1010.0
20180622112504 66 112 2.0 2.0 0.00 0.01 0.00 99 1009.9
20180622112004 66 135 2.0 2.0 0.00 0.01 0.00 99 1009.9
20180622111504 66 150 2.0 2.0 0.00 0.01 0.00 99 1009.9
20180622111005 65 157 3.0 3.0 0.00 0.01 0.00 98 1010.0
20180622110505 65 157 2.0 2.0 0.00 0.01 0.00 98 1010.0
20180622110005 65 140 2.0 3.0 0.00 0.01 0.00 98 1009.9
20180622105504 65 157 2.0 3.0 0.00 0.01 0.00 98 1009.9
20180622105004 65 157 2.0 2.0 0.00 0.01 0.00 98 1010.0
20180622104504 65 168 1.0 1.0 0.00 0.01 0.00 98 1009.9
20180622104005 65 157 2.0 2.0 0.00 0.01 0.00 98 1009.8
20180622103505 65 157 4.0 4.0 0.00 0.01 0.00 98 1009.7
20180622103004 65 157 1.0 1.0 0.00 0.01 0.00 99 1009.8
20180622102504 65 157 4.0 4.0 0.00 0.01 0.00 97 1009.7
20180622102004 65 157 2.0 2.0 0.00 0.01 0.00 97 1009.6
20180622101504 65 135 1.0 1.0 0.00 0.01 0.00 97 1009.6
20180622101004 65 124 2.0 3.0 0.00 0.01 0.00 97 1009.5
20180622100504 65 112 2.0 2.0 0.00 0.01 0.00 97 1009.4
20180622100005 65 112 2.0 2.0 0.00 0.01 0.00 97 1009.4
20180622095504 65 135 1.0 1.0 0.00 0.01 0.00 98 1009.2
20180622095005 65 146 0.0 1.0 0.00 0.01 0.00 97 1009.2
20180622094504 65 157 1.0 2.0 0.00 0.01 0.00 98 1009.2
20180622094004 65 157 0.0 0.0 0.00 0.01 0.00 97 1009.2
20180622093504 66 157 2.0 2.0 0.00 0.01 0.00 98 1009.2
20180622093005 66 157 1.0 2.0 0.00 0.01 0.00 98 1009.1
20180622092504 66 157 0.0 1.0 0.00 0.01 0.00 98 1009.1
20180622092005 66 157 1.0 1.0 0.00 0.01 0.00 98 1009.2
20180622091504 66 157 1.0 2.0 0.00 0.01 0.00 97 1009.1
20180622090504 66 157 0.0 2.0 0.00 0.01 0.00 97 1009.1
20180622090004 66 157 1.0 1.0 0.00 0.01 0.00 96 1009.0
20180622085504 66 157 0.0 1.0 0.00 0.01 0.00 96 1009.1
20180622085004 66 157 0.0 1.0 0.00 0.01 0.00 97 1009.0
20180622084005 66 157 0.0 2.0 0.00 0.01 0.00 96 1009.0
20180622083503 66 157 1.0 2.0 0.00 0.01 0.00 97 1009.1
20180622083005 66 139 1.0 2.0 0.00 0.01 0.00 97 1009.0
20180622082504 67 157 1.0 1.0 0.00 0.01 0.00 97 1009.1
20180622082004 67 157 1.0 2.0 0.00 0.01 0.00 97 1009.0
20180622081504 67 157 0.0 1.0 0.00 0.01 0.00 96 1009.1
20180622081004 67 157 1.0 2.0 0.00 0.01 0.00 97 1009.2
20180622080503 67 157 2.0 2.0 0.00 0.01 0.00 97 1009.0
20180622080005 67 172 2.0 3.0 0.00 0.01 0.00 97 1009.1
20180622075504 68 157 2.0 3.0 0.00 0.01 0.00 97 1009.2
20180622075004 68 130 1.0 2.0 0.00 0.01 0.00 98 1009.2
20180622074504 68 180 0.0 0.0 0.00 0.01 0.00 97 1009.1
20180622074004 68 157 2.0 3.0 0.00 0.01 0.00 97 1009.2
20180622073504 68 164 2.0 3.0 0.00 0.01 0.00 98 1009.2
20180622073004 68 123 0.0 2.0 0.00 0.01 0.00 97 1009.1
20180622072504 68 225 1.0 1.0 0.00 0.01 0.00 97 1009.1
20180622072004 68 191 2.0 2.0 0.00 0.01 0.00 97 1009.1
20180622071504 68 127 0.0 1.0 0.00 0.01 0.00 98 1009.2
20180622071004 69 157 1.0 1.0 0.00 0.01 0.00 98 1009.0
20180622070504 69 157 1.0 2.0 0.00 0.01 0.00 97 1008.9
20180622070005 69 157 2.0 3.0 0.00 0.01 0.00 98 1008.9
20180622065504 69 157 2.0 4.0 0.00 0.01 0.00 99 1008.8
20180622065005 69 152 2.0 3.0 0.00 0.01 0.00 98 1008.9
20180622064504 70 154 0.0 1.0 0.00 0.01 0.00 99 1008.8
20180622064004 70 157 1.0 2.0 0.00 0.01 0.00 98 1008.9
20180622063504 70 157 1.0 2.0 0.00 0.01 0.00 99 1008.8
20180622063005 70 157 1.0 2.0 0.00 0.01 0.00 98 1008.8
20180622062504 70 187 2.0 2.0 0.00 0.01 0.00 99 1008.9
20180622062004 71 112 0.0 0.0 0.00 0.01 0.00 98 1009.0
20180622061504 71 112 2.0 2.0 0.00 0.01 0.00 98 1009.0
20180622061004 71 112 2.0 3.0 0.00 0.01 0.00 98 1009.1
20180622060504 71 157 3.0 3.0 0.00 0.01 0.00 98 1009.2
20180622060005 71 157 0.0 0.0 0.00 0.01 0.00 98 1009.1
20180622055504 71 157 0.0 1.0 0.00 0.01 0.00 98 1009.1
20180622055004 71 180 2.0 2.0 0.00 0.01 0.00 98 1009.2